Location: Chatou
(48.8898°N, 2.1586°E)
Time: 00:08:10
(UTC+00:00)

VELOX 1 - Visible Passes

Search period start: 07 December 2023 00:00
Search period end: 17 December 2023 00:00
Orbit: 610 x 625 km, 98.4° (Epoch: 06 December)

Date Brightness Start Highest point End Pass type
(mag) Time Alt. Az. Time Alt. Az. Time Alt. Az.
07 Dec ? 05:49:13 10° SE 05:53:21 51° ENE 05:57:31 10° N visible
08 Dec ? 04:33:40 10° ENE 04:34:38 11° NE 04:35:36 10° NE visible
08 Dec ? 06:05:37 10° SSE 06:09:52 74° ENE 06:14:10 10° N visible
09 Dec ? 04:48:36 10° E 04:50:58 15° ENE 04:53:20 10° NNE visible
09 Dec ? 06:22:09 10° S 06:26:25 77° WSW 06:30:44 10° NNW visible
10 Dec ? 05:04:14 10° ESE 05:07:19 20° ENE 05:10:26 10° NNE visible
10 Dec ? 06:38:50 10° S 06:43:00 52° W 06:47:13 10° NNW visible
11 Dec ? 05:20:08 10° ESE 05:23:43 27° ENE 05:27:20 10° N visible
11 Dec ? 06:55:40 10° SSW 06:59:37 36° W 07:03:36 10° NNW visible
12 Dec ? 05:36:12 10° SE 05:40:09 37° ENE 05:44:06 10° N visible
13 Dec ? 05:52:26 10° SSE 05:56:36 53° ENE 06:00:47 10° N visible
14 Dec ? 04:36:36 10° ENE 04:37:49 11° NE 04:39:02 10° NE visible
14 Dec ? 06:08:48 10° SSE 06:13:04 77° ENE 06:17:23 10° NNW visible
15 Dec ? 04:51:39 10° E 04:54:07 15° ENE 04:56:34 10° NNE visible
15 Dec ? 06:25:19 10° S 06:29:34 74° WSW 06:33:54 10° NNW visible
16 Dec ? 05:07:16 10° ESE 05:10:26 20° ENE 05:13:36 10° NNE visible
16 Dec ? 06:41:58 10° S 06:46:07 50° W 06:50:20 10° NNW visible
